Voltar ao catálogo

LIZZIESAT-2

AtivoComunicaçõesVLEO
NORAD 62383·PAYLOAD·🇺🇸 United States

Lançado Dec 21, 2024 de Vandenberg Space Force Base

Loading…

Próximas Passagens (próximas 24 horas)

TLE

AtualizadoSource: Space-Track

Época: Sep 14, 2026, 03:34 UTC

1 62383U 24247G   26257.14906299  .00006735  00000-0  23034-3 0  9999
2 62383  44.9913 163.6692 0000878 352.7454   7.3417 15.31014751 96601

Acompanhe LIZZIESAT-2 em tempo real com AllMySat

Download on the App Store